This is the latest recevied weather packets stored in our database for station/object N2OCK. If no packets are shown the sender has not sent any weather packets the latest 1 day(s).
| Time | Temp. | Humidity | Pressure | Rain* | Wind** | Luminosity | Snow |
|---|---|---|---|---|---|---|---|
| 1778026361 | 17.22° C | 72% | 1010.8 hPa | 0 mm | 2.68 m/s, 247° | 0 W/m² | - |
| 1778026058 | 17.22° C | 72% | 1010.5 hPa | 0 mm | 2.68 m/s, 237° | 0 W/m² | - |
| 1778025755 | 17.22° C | 72% | 1010.4 hPa | 0 mm | 3.13 m/s, 235° | 1 W/m² | - |
| 1778025452 | 17.22° C | 72% | 1010.6 hPa | 0 mm | 3.13 m/s, 177° | 2 W/m² | - |
| 1778025150 | 17.22° C | 72% | 1010.5 hPa | 0 mm | 1.79 m/s, 239° | 3 W/m² | - |
| 1778024847 | 17.22° C | 72% | 1010.4 hPa | 0 mm | 3.13 m/s, 285° | 5 W/m² | - |
| 1778024544 | 17.22° C | 72% | 1010.3 hPa | 0 mm | 2.68 m/s, 230° | 8 W/m² | - |
| 1778024240 | 17.22° C | 72% | 1010.2 hPa | 0 mm | 2.68 m/s, 171° | 11 W/m² | - |
| 1778023939 | 17.22° C | 72% | 1010.4 hPa | 0 mm | 3.13 m/s, 202° | 15 W/m² | - |
| 1778023635 | 17.22° C | 71% | 1010 hPa | 0 mm | 2.24 m/s, 92° | 18 W/m² | - |
| 1778023333 | 17.78° C | 70% | 1009.9 hPa | 0 mm | 1.79 m/s, 263° | 21 W/m² | - |
| 1778023029 | 17.78° C | 70% | 1010 hPa | 0 mm | 0.89 m/s, 235° | 29 W/m² | - |
| 1778022729 | 17.78° C | 69% | 1009.9 hPa | 0 mm | 4.02 m/s, 245° | 33 W/m² | - |
| 1778022426 | 18.33° C | 69% | 1009.6 hPa | 0 mm | 1.79 m/s, 220° | 34 W/m² | - |
| 1778022123 | 18.33° C | 68% | 1009.7 hPa | 0 mm | 1.79 m/s, 221° | 44 W/m² | - |
| 1778021819 | 18.33° C | 67% | 1009.7 hPa | 0 mm | 1.79 m/s, 274° | 47 W/m² | - |
| 1778021516 | 18.33° C | 67% | 1009.8 hPa | 0 mm | 2.24 m/s, 219° | 60 W/m² | - |
| 1778021211 | 18.33° C | 67% | 1009.9 hPa | 0 mm | 2.24 m/s, 234° | 71 W/m² | - |
| 1778020909 | 18.33° C | 68% | 1009.8 hPa | 0 mm | 1.79 m/s, 243° | 75 W/m² | - |
| 1778020607 | 18.33° C | 68% | 1009.6 hPa | 0 mm | 2.24 m/s, 187° | 81 W/m² | - |
| 1778020302 | 18.89° C | 67% | 1009.7 hPa | 0 mm | 1.79 m/s, 262° | 103 W/m² | - |
| 1778019998 | 18.89° C | 66% | 1009.8 hPa | 0 mm | 1.79 m/s, 218° | 118 W/m² | - |
| 1778019695 | 18.89° C | 66% | 1009.8 hPa | 0 mm | 1.34 m/s, 240° | 124 W/m² | - |
| 1778019392 | 18.89° C | 66% | 1009.6 hPa | 0 mm | 1.79 m/s, 213° | 141 W/m² | - |
| 1778019088 | 18.89° C | 66% | 1009.8 hPa | 0 mm | 0.89 m/s, 217° | 156 W/m² | - |
* Rain latest hour (hover to see other rain measurements)
** Current wind speed in m/s (hover to see current wind gust speed)